Find Starlink 31584

NORAD ID: 59862 Int'l Des: 2024-098 Owner: SPXS Country: US Constellation: starlink operational
LEOCIRCULAR

实时位置

正在加载3D地球...

关于 Starlink 31584

正在加载描述...

即将过境

Passes for default location (London). Set your location on the main map for personalized predictions.

高度历史

Loading altitude history...

两行轨道根数

1 59862U 24098E 26125.54830201 -.00000801 00000-0 -19571-4 0 9990
2 59862 43.0000 316.7494 0001185 298.0365 62.0366 15.27584246110549
Epoch: May 5, 2026 • Age: 5 hours

当前状态

高度 483.0 km
速度 7.63 km/s
星下点 1.69°N, 9.59°W
发射日期 May 24, 2024
运行时间 1.9 years
类型 internet

技术详情

分类 Payload
质量 730.00 kg
干质量 700.00 kg
总质量 730.00 kg
长度 0.30 m
直径 4.10 m
跨度 29.00 m
形状 Box + pan
制造商 SPXS
平台类型 Starlink V2M
阶段状态 In Orbit
所有者/国家 SPXS/US

Most Searched